Wind_Speed
11 11 11 12 13 13 14 15 16 17 18 18 18 17 17 16 16 13 13 13 14 14 13 13 14 14 15 15 16 16 16 17 17 18 18 19 20 20 21 22 23 23 24
12 12 13 14 15 16 17 18 19 20 21 22 22 21 20 19 19 17 16 16 16 16 15 15 16 16 17 18 18 18 19 19 19 19 20 21 22 22 24 24 25 26 26
14 15 15 17 18 19 20 22 23 23 24 25 25 24 23 23 22 21 19 18 18 18 18 18 18 19 19 20 20 21 21 21 22 22 23 24 25 26 27 28 29 29 30
16 17 18 19 21 22 24 25 26 27 28 28 27 26 26 26 25 24 22 21 22 22 21 21 21 21 22 23 23 24 24 25 26 27 28 29 29 31 32 32 33 34 35
20 20 21 22 23 25 27 28 29 30 30 30 30 29 29 29 28 27 25 23 24 24 24 24 25 25 26 26 27 28 28 29 30 32 33 33 34 36 37 38 39 39 40
23 23 24 25 26 27 29 31 31 31 31 32 31 30 30 29 29 28 28 27 27 27 27 27 28 30 30 31 31 32 33 34 35 36 37 38 39 41 42 43 43 44 45
26 27 27 27 28 29 30 31 32 32 31 31 31 30 30 29 28 28 28 29 29 30 30 31 32 33 34 34 35 35 36 38 39 40 42 43 44 45 46 47 48 48 50
29 29 30 31 32 32 32 31 30 31 32 32 30 30 30 30 29 29 29 30 30 32 33 34 35 36 37 38 38 39 40 42 44 45 46 47 48 49 50 51 52 53 54
33 32 33 34 35 35 32 31 30 31 31 31 31 29 30 30 29 28 29 30 31 33 35 36 38 39 41 41 42 42 44 46 48 50 51 51 52 53 54 55 56 57 58
34 35 34 36 37 36 33 30 29 31 32 30 28 29 30 30 31 31 32 33 34 36 37 39 41 42 44 44 46 47 47 49 52 53 55 56 57 58 58 59 60 61 62
37 36 38 38 37 37 34 32 30 29 30 29 28 29 31 32 34 35 35 36 38 39 40 42 44 46 47 48 49 50 51 53 55 57 59 60 61 62 63 64 65 65 66
36 36 38 38 37 36 35 33 32 32 32 32 32 33 33 34 36 38 40 40 41 42 43 45 47 50 51 52 53 54 56 58 60 61 63 64 65 66 67 68 69 69 69
35 35 37 37 35 35 35 35 35 35 34 34 35 36 36 37 39 40 42 43 45 46 47 49 51 53 55 56 57 58 60 62 64 65 66 68 69 70 70 71 70 70 71
40 39 39 38 37 37 37 37 37 38 37 37 39 40 40 41 41 43 44 46 48 50 52 53 54 56 58 59 60 61 64 65 67 68 69 70 70 71 71 71 71 71 71
42 42 42 42 40 41 41 41 41 41 41 41 42 42 44 45 46 47 48 49 51 53 54 56 57 59 60 61 62 63 65 67 69 70 70 70 70 70 70 69 69 68 68
45 45 44 44 44 44 45 44 44 43 44 45 45 47 48 49 49 50 52 52 53 55 58 59 61 63 63 64 65 67 68 69 70 70 68 68 68 66 66 65 64 64 63
47 47 47 47 47 47 47 47 48 48 49 48 48 50 50 51 52 52 53 55 57 58 61 62 63 65 65 66 67 67 67 67 67 66 66 65 63 62 62 60 60 59 58
49 49 49 49 49 50 49 49 49 50 51 52 52 52 53 54 55 55 57 58 59 60 62 64 65 66 65 65 65 64 64 64 64 63 61 60 58 57 56 56 55 54 53
50 51 50 51 51 51 51 51 52 52 53 54 54 54 55 56 58 58 59 60 61 63 63 63 64 64 62 62 61 59 57 56 55 54 53 51 50 50 50 49 49 48 47
50 50 51 51 52 52 52 53 53 54 55 55 55 55 56 56 57 58 59 60 60 61 61 60 59 57 55 53 51 49 48 47 46 46 45 44 44 43 43 43 42 42 42
49 50 51 52 52 52 53 53 53 53 54 54 55 56 56 55 55 56 57 57 57 56 55 53 50 48 47 45 44 43 42 41 40 39 38 39 39 39 38 38 39 39 39
48 49 49 49 51 51 51 52 53 53 54 55 55 55 54 54 53 54 55 54 52 49 47 44 43 41 41 40 40 39 37 36 35 34 34 35 35 35 35 35 36 36 36
46 47 47 47 48 50 51 52 53 54 54 53 52 51 51 51 50 49 48 46 44 41 39 38 37 36 35 33 32 31 30 30 30 30 30 30 31 31 32 33 33 34 34
43 43 44 45 46 48 49 49 50 50 49 49 48 47 46 45 43 42 39 37 35 34 32 30 29 27 26 26 25 24 24 25 26 26 26 26 27 29 31 31 32 32 32
39 40 41 42 44 45 45 45 45 45 45 44 42 40 38 35 33 31 29 28 27 25 23 22 21 20 19 19 20 20 21 21 21 22 23 24 26 28 30 30 30 30 30
36 36 37 39 40 41 41 40 40 38 36 33 29 26 24 22 21 21 20 19 17 16 14 14 13 13 14 15 16 18 18 19 19 20 21 24 26 27 27 28 29 28 28
Wind_Direction
271 275 278 283 288 291 295 298 301 304 307 308 308 310 307 305 304 301 293 286 283 283 283 282 283 282 282 284 286 287 288 289 291 291 292 291 290 290 290 291 291 290 290
273 277 281 284 286 289 292 294 296 298 301 303 303 303 302 299 295 294 289 285 281 281 280 279 280 280 280 281 283 284 286 288 288 289 289 289 289 290 290 290 289 289 289
272 276 280 283 285 287 288 290 292 294 295 296 297 298 297 294 291 288 284 281 281 281 279 279 280 279 278 280 282 283 285 286 287 288 288 288 288 288 288 288 288 287 287
268 272 276 281 284 286 287 286 288 290 292 292 292 292 292 291 287 285 283 279 279 280 278 280 279 279 278 279 280 282 283 284 284 285 286 287 288 288 288 287 287 287 286
267 270 275 280 285 287 287 286 287 288 289 289 288 288 288 287 283 280 280 279 280 279 280 281 279 280 279 279 281 283 284 285 284 284 286 287 288 288 288 287 287 287 286
268 272 276 281 285 288 287 287 288 290 287 287 288 287 287 285 279 277 277 277 278 278 278 280 280 281 282 281 282 283 285 285 285 284 286 286 287 287 287 287 287 287 286
271 274 277 282 285 287 287 287 289 291 290 289 286 285 286 283 278 276 276 276 278 278 278 279 280 282 282 282 283 284 284 285 285 285 286 287 287 287 287 287 286 286 286
274 277 279 283 284 285 288 290 289 293 291 288 286 285 286 284 279 278 276 277 277 277 278 280 282 282 283 282 283 284 284 285 285 286 286 287 287 286 286 286 285 285 285
276 279 283 284 285 287 290 289 294 297 296 291 285 286 286 283 281 279 278 278 278 278 280 281 282 283 282 282 283 285 285 286 286 286 287 287 287 287 286 286 285 285 285
279 280 286 285 285 287 290 291 295 299 296 294 288 287 286 283 284 283 280 278 279 280 280 280 281 282 282 282 282 284 285 285 285 286 286 286 286 286 286 286 286 286 285
282 283 285 286 285 287 291 293 295 298 298 294 290 288 287 286 283 281 281 281 280 280 280 280 281 281 281 281 282 283 284 285 285 285 286 286 286 286 285 285 286 286 285
284 288 290 289 289 290 294 295 296 298 299 294 290 289 287 286 284 282 281 280 280 280 279 279 280 281 281 282 282 283 283 284 285 285 285 285 285 285 285 285 285 285 285
290 291 293 293 296 296 296 296 299 298 296 293 289 288 286 285 284 282 281 280 280 280 279 279 279 280 281 282 282 283 283 283 283 284 285 285 285 285 285 285 286 286 286
293 297 299 300 300 300 300 298 299 296 294 291 288 286 284 284 283 281 280 280 280 280 280 280 280 280 281 282 282 282 282 282 283 284 285 285 286 287 287 286 287 287 287
295 296 298 300 299 299 298 296 295 293 291 289 287 285 283 282 282 279 278 279 279 279 279 279 280 281 282 283 282 282 282 283 283 284 285 287 287 288 288 287 287 288 288
294 296 297 297 296 295 295 294 292 291 290 289 287 286 284 281 280 279 279 278 278 278 279 280 281 282 282 282 283 283 283 284 285 286 286 288 289 290 290 290 290 289 288
291 293 294 294 294 293 293 291 290 288 287 285 283 283 281 279 278 279 280 280 279 279 279 281 283 283 283 283 283 285 286 287 287 288 289 290 291 291 291 290 289 288 287
289 291 291 291 290 290 290 289 287 285 285 284 283 282 281 279 278 280 281 280 279 279 279 281 282 282 283 283 285 286 288 289 289 290 292 292 292 292 291 291 290 289 289
288 288 289 289 289 288 287 287 284 283 283 282 282 281 280 280 279 280 281 281 280 280 280 281 282 283 286 288 289 289 291 292 293 293 294 294 293 292 292 292 292 291 290
287 287 288 288 288 286 285 285 283 282 281 281 282 282 283 283 284 284 283 283 283 284 284 284 285 287 289 290 292 293 294 296 297 297 297 297 296 296 295 295 295 294 294
286 286 286 286 286 286 286 285 284 284 283 283 284 284 285 285 285 286 286 286 287 287 288 288 288 289 291 293 294 296 297 298 299 299 299 299 299 299 300 300 300 299 298
285 285 284 286 287 288 288 288 287 286 287 287 288 287 287 287 288 288 289 289 289 290 290 290 291 293 295 296 297 298 300 300 300 300 301 303 304 305 305 305 306 305 304
285 285 287 289 291 292 293 292 292 291 291 291 291 291 290 290 291 291 292 292 292 292 292 293 294 296 297 298 300 302 303 303 303 304 306 309 310 311 312 313 313 313 312
289 291 293 295 295 295 295 295 295 295 294 294 293 292 292 293 293 293 293 292 293 293 293 294 295 297 298 302 304 306 308 310 311 312 312 314 317 318 319 320 320 320 319
295 297 298 298 298 298 298 298 298 297 296 295 294 293 293 294 295 296 296 297 296 296 295 295 296 300 304 307 309 313 317 318 318 319 320 323 325 326 325 326 326 326 326
300 301 301 302 302 302 302 301 301 301 301 300 300 300 301 302 304 304 303 303 302 301 301 301 307 312 314 318 322 324 325 326 327 328 329 330 331 332 332 331 332 333 334
Height
5891 5891 5891 5891 5891 5891 5890 5890 5890 5889 5888 5888 5887 5886 5885 5884 5883 5883 5881 5880 5880 5880 5879 5879 5878 5878 5877 5877 5876 5876 5875 5874 5874 5873 5872 5872 5871 5870 5869 5869 5868 5867 5867
5888 5888 5888 5889 5888 5888 5888 5887 5887 5886 5885 5884 5884 5883 5881 5880 5880 5879 5879 5878 5877 5877 5876 5875 5874 5874 5873 5873 5872 5872 5871 5870 5869 5868 5868 5867 5866 5865 5864 5863 5862 5862 5861
5886 5886 5886 5886 5885 5885 5884 5884 5883 5882 5881 5881 5880 5879 5878 5876 5875 5875 5874 5873 5873 5873 5872 5871 5870 5870 5869 5868 5868 5867 5866 5865 5864 5863 5862 5861 5860 5859 5858 5857 5856 5855 5854
5883 5883 5883 5883 5882 5881 5880 5879 5879 5878 5876 5876 5875 5874 5873 5872 5870 5869 5869 5867 5868 5867 5866 5866 5866 5865 5864 5863 5863 5862 5861 5860 5858 5857 5856 5855 5854 5853 5851 5850 5849 5848 5847
5879 5879 5879 5879 5878 5877 5876 5875 5874 5872 5871 5870 5869 5868 5867 5866 5864 5864 5863 5863 5863 5862 5861 5860 5860 5859 5858 5857 5857 5856 5854 5853 5852 5850 5849 5847 5846 5845 5843 5842 5840 5839 5838
5875 5874 5874 5874 5873 5872 5870 5869 5868 5866 5864 5863 5862 5861 5860 5859 5858 5858 5857 5857 5857 5856 5855 5854 5853 5853 5852 5850 5849 5848 5847 5845 5844 5842 5840 5838 5837 5835 5834 5832 5830 5829 5827
5870 5869 5869 5869 5868 5866 5865 5863 5861 5860 5858 5856 5855 5854 5853 5852 5852 5851 5851 5850 5850 5849 5848 5848 5846 5845 5844 5842 5841 5840 5838 5836 5834 5833 5831 5829 5827 5825 5823 5821 5819 5817 5815
5864 5863 5863 5863 5861 5860 5858 5856 5854 5853 5851 5849 5848 5847 5846 5846 5845 5845 5844 5843 5843 5842 5841 5840 5839 5837 5836 5834 5833 5831 5829 5827 5825 5822 5820 5818 5816 5814 5812 5810 5807 5805 5803
5857 5856 5856 5856 5855 5854 5851 5849 5847 5846 5844 5841 5840 5840 5839 5839 5838 5838 5837 5836 5836 5835 5833 5832 5830 5828 5826 5825 5824 5822 5819 5817 5814 5812 5809 5807 5805 5802 5799 5796 5794 5791 5789
5850 5849 5848 5848 5848 5846 5843 5840 5839 5839 5838 5836 5835 5834 5833 5832 5831 5830 5830 5829 5828 5826 5825 5823 5821 5819 5817 5815 5813 5812 5809 5806 5803 5800 5797 5794 5792 5789 5786 5782 5779 5776 5773
5843 5842 5841 5839 5838 5837 5835 5834 5833 5832 5831 5830 5829 5827 5825 5824 5823 5822 5821 5820 5819 5817 5815 5813 5811 5809 5807 5805 5802 5800 5797 5794 5790 5787 5784 5780 5777 5774 5770 5767 5764 5760 5757
5835 5834 5832 5830 5830 5829 5828 5827 5826 5825 5824 5822 5821 5820 5818 5816 5815 5813 5812 5810 5809 5807 5805 5803 5800 5797 5795 5793 5790 5788 5785 5781 5777 5773 5769 5765 5762 5758 5754 5751 5747 5743 5739
5826 5825 5825 5823 5822 5822 5820 5819 5818 5817 5815 5814 5812 5811 5809 5807 5806 5804 5802 5800 5798 5796 5794 5791 5788 5785 5783 5780 5778 5775 5771 5767 5762 5757 5753 5749 5746 5741 5737 5733 5729 5724 5720
5819 5818 5817 5816 5814 5814 5812 5811 5810 5808 5807 5805 5803 5801 5799 5797 5795 5793 5791 5789 5786 5784 5781 5778 5775 5772 5769 5766 5764 5760 5756 5751 5746 5741 5737 5732 5727 5723 5718 5714 5709 5705 5701
5810 5810 5809 5808 5806 5805 5804 5802 5800 5798 5796 5795 5793 5790 5788 5786 5784 5781 5779 5777 5775 5771 5768 5765 5762 5758 5755 5752 5748 5744 5739 5735 5730 5724 5719 5714 5708 5704 5699 5695 5690 5685 5681
5802 5801 5800 5798 5797 5795 5793 5792 5789 5787 5785 5783 5781 5778 5776 5774 5771 5769 5766 5763 5761 5758 5754 5750 5746 5744 5740 5735 5731 5727 5722 5717 5712 5706 5701 5696 5690 5685 5680 5675 5670 5666 5661
5794 5792 5790 5788 5786 5784 5782 5780 5778 5775 5773 5771 5769 5766 5764 5761 5759 5756 5753 5750 5747 5743 5740 5735 5730 5726 5723 5719 5714 5709 5704 5699 5694 5689 5684 5679 5673 5668 5663 5658 5653 5648 5644
5784 5781 5779 5777 5775 5772 5770 5768 5766 5763 5761 5759 5756 5754 5751 5748 5745 5742 5739 5735 5732 5728 5724 5719 5714 5710 5705 5701 5697 5692 5687 5682 5678 5672 5667 5663 5658 5652 5647 5642 5638 5633 5629
5773 5770 5768 5765 5762 5760 5757 5755 5753 5750 5748 5745 5742 5740 5737 5734 5730 5727 5723 5719 5715 5711 5707 5703 5698 5693 5689 5684 5681 5676 5672 5666 5662 5657 5652 5648 5644 5638 5633 5628 5624 5619 5614
5761 5758 5756 5753 5750 5747 5745 5742 5740 5737 5734 5731 5728 5725 5722 5718 5715 5711 5707 5703 5699 5694 5690 5686 5682 5678 5674 5670 5666 5663 5659 5654 5649 5644 5640 5635 5631 5626 5622 5617 5612 5607 5602
5750 5747 5744 5741 5738 5735 5732 5729 5727 5724 5720 5717 5713 5710 5707 5703 5698 5694 5691 5686 5682 5678 5674 5671 5668 5664 5661 5657 5654 5651 5647 5643 5638 5634 5629 5625 5621 5616 5611 5606 5601 5596 5591
5739 5736 5733 5729 5726 5723 5720 5716 5713 5709 5706 5702 5698 5694 5691 5687 5682 5678 5674 5671 5667 5664 5661 5658 5655 5653 5650 5647 5643 5640 5637 5633 5629 5625 5621 5616 5612 5607 5602 5597 5592 5586 5581
5729 5725 5722 5718 5715 5711 5707 5703 5699 5695 5691 5687 5683 5679 5675 5672 5667 5663 5660 5657 5654 5651 5649 5647 5645 5642 5640 5637 5634 5631 5628 5625 5621 5617 5614 5609 5604 5599 5594 5589 5583 5577 5572
5718 5715 5711 5707 5703 5699 5694 5690 5685 5680 5676 5672 5668 5664 5660 5657 5653 5650 5647 5645 5642 5640 5639 5637 5636 5634 5632 5630 5627 5624 5621 5618 5614 5611 5607 5603 5598 5593 5587 5582 5576 5570 5564
5709 5705 5701 5697 5692 5687 5682 5677 5672 5667 5663 5658 5654 5651 5647 5645 5642 5639 5637 5635 5634 5632 5631 5630 5629 5627 5626 5624 5621 5619 5616 5614 5610 5607 5602 5598 5594 5588 5582 5576 5570 5564 5558
5700 5696 5691 5686 5681 5676 5670 5665 5660 5655 5650 5646 5643 5640 5638 5636 5634 5632 5630 5629 5628 5627 5626 5625 5624 5623 5621 5620 5618 5615 5613 5610 5607 5603 5599 5594 5589 5584 5579 5573 5566 5559 5553